"SCET";"TARGET";"ELECTRON_DENSITY";"ERROR_FLAG";"ELECTRON_DENSITY_ERROR";"FREQ_FCE";"MEASURED_VALUE";"MEASURED_ITEM";"FREQ_PLASMA";"FREQ_UPPER_HYBRID";"FREQ_R_EQUALS_ZERO";"FREQ_L_EQUALS_ZERO";"ORBIT_NUMBER";"SATURN_RADIUS";"SATURN_IAU_LONGITUDE";"SATURN_SLS4_S_LONGITUDE";"SATURN_SLS4_N_LONGITUDE";"SATURN_SLS5_S_LONGITUDE";"SATURN_SLS5_N_LONGITUDE";"SATURN_LOCAL_TIME";"SATURN_KRONOGRAPHIC_LATITUDE";"SATURN_MAGNETIC_LATITUDE";"SATURN_L";"SATURN_L_OFFSET";"SATURN_SOLAR_EQUATORIAL_X";"SATURN_SOLAR_EQUATORIAL_Y";"SATURN_SOLAR_EQUATORIAL_Z";"SATURN_ALTITUDE";"ENCELADUS_ENCOUNTER_NUMBER";"ENCELADUS_RADIUS";"ENCELADUS_COROTATIONAL_X";"ENCELADUS_COROTATIONAL_Y";"ENCELADUS_COROTATIONAL_Z";"ENCELADUS_TRUE_ANOMALY";"ENCELADUS_PERIAPSIS_TIME";"JUPITER_RADIUS";"JUPITER_SYSTEMIII_LONGITUDE";"JUPITER_MAGNETIC_LATITUDE";"JUPITER_MAGNETIC_LOCAL_TIME";"JUPITER_L";"IO_PHASE";"EARTH_RADIUS";"EARTH_MAGNETIC_LATITUDE";"EARTH_LOCAL_TIME";"EARTH_L"
"[UTC]";"[0=Saturn, 1=Enceladus, 2=Jupiter, 3=Earth]";"[cm-3]";"[0=automated, 1=manual]";"[normalized density error]";"[Hz]";"[Hz]";"[0=upper hybrid frequency, 1=plasma frequency cutoff]";"[Hz]";"[Hz]";"[Hz]";"[Hz}";"[0, A, B, C, 3, 4, ... , 292, 293]";"[Rs where 1Rs=60268km]";"[degrees]";"[degrees]";"[degrees]";"[degrees]";"[degrees]";"[hours]";"[degrees]";"[degrees where offset=2293km north]";"[Rs where 1Rs=60268km]";"[Rs where 1Rs=60268km and offset=2293km north]";"[Rs where 1Rs=60268km]";"[Rs where 1Rs=60268km]";"[Rs where 1Rs=60268km]";"[km where ellipsoid a,b=60268km and c=54364km]";"[E0, E1, E2, ... , E21, E22]";"[Renc where 1Renc=252.1km]";"[Renc where 1Renc=252.1km]";"[Renc where 1Renc=252.1km]";"[Renc where 1Renc=252.1km]";"[degrees]";"[UTC]";"[Rj where 1Rj=71492km]";"[degrees]";"[degrees using JRM09 model]";"[hours using JRM09 model]";"[Rj where 1Rj=71492km]";"[degrees]";"[Re where 1Re=6378.1366km]";"[degrees]";"[hours]";"[Re where 1Re=6378.1366km]"
2017-05-22T02:18:13.764Z;0;3.0150e+00;1;     0.382;264129.562;  15593.260; 1;  15593.260; 264589.469; 265046.969;    917.384;275;   1.620;  71.360;;; 201.347; 184.647;   9.216;  56.074;  55.308;   5.201;   1.588;   0.675;  -0.602;   1.344;;;;;;;;;;;;;;;;;;
2017-05-22T02:18:21.764Z;0;3.0150e+00;1;     0.382;264129.562;  15593.260; 1;  15593.260; 264589.469; 265046.969;    917.384;275;   1.618;  71.283;;; 201.269; 184.569;   9.226;  56.017;  55.249;   5.179;   1.586;   0.676;  -0.601;   1.342;;;;;;;;;;;;;;;;;;
2017-05-22T02:18:37.764Z;0;3.1440e+00;1;     0.374;264129.562;  15923.090; 1;  15923.090; 264609.094; 265086.031;    956.462;275;   1.614;  71.128;;; 201.112; 184.412;   9.246;  55.902;  55.130;   5.135;   1.581;   0.680;  -0.597;   1.336;;;;;;;;;;;;;;;;;;
2017-05-22T02:18:45.763Z;0;3.1880e+00;1;     0.372;264129.562;  16034.576; 1;  16034.576; 264615.844; 265099.438;    969.854;275;   1.612;  71.051;;; 201.033; 184.333;   9.257;  55.845;  55.070;   5.114;   1.579;   0.682;  -0.595;   1.334;;;;;;;;;;;;;;;;;;
2017-05-22T02:18:53.763Z;0;3.2330e+00;1;     0.369;264129.562;  16146.843; 1;  16146.843; 264622.656; 265113.000;    983.432;275;   1.610;  70.974;;; 200.955; 184.255;   9.267;  55.786;  55.010;   5.092;   1.577;   0.683;  -0.594;   1.331;;;;;;;;;;;;;;;;;;
2017-05-22T02:19:01.763Z;0;3.3250e+00;1;     0.381;270805.281;  16373.740; 1;  16373.740; 271299.844; 271791.688;    986.415;275;   1.608;  70.897;;; 200.876; 184.176;   9.277;  55.728;  54.949;   5.070;   1.575;   0.685;  -0.592;   1.329;;;;;;;;;;;;;;;;;;
2017-05-22T02:19:09.763Z;0;3.2790e+00;1;     0.384;270805.281;  16259.896; 1;  16259.896; 271293.000; 271778.062;    972.795;275;   1.606;  70.820;;; 200.797; 184.097;   9.287;  55.669;  54.888;   5.048;   1.573;   0.687;  -0.590;   1.326;;;;;;;;;;;;;;;;;;
2017-05-22T02:19:25.763Z;0;3.3710e+00;1;     0.379;270805.281;  16488.383; 1;  16488.383; 271306.781; 271805.500;   1000.225;275;   1.602;  70.666;;; 200.640; 183.940;   9.307;  55.550;  54.765;   5.005;   1.569;   0.690;  -0.587;   1.321;;;;;;;;;;;;;;;;;;
2017-05-22T02:19:33.763Z;0;3.2790e+00;1;     0.577;270805.281;  16259.896; 1;  16259.896; 271293.000; 271778.062;    972.795;275;   1.600;  70.589;;; 200.561; 183.861;   9.317;  55.491;  54.703;   4.983;   1.567;   0.692;  -0.585;   1.318;;;;;;;;;;;;;;;;;;
2017-05-22T02:19:49.763Z;0;3.6660e+00;1;     0.381;270805.281;  17193.285; 1;  17193.285; 271350.531; 271892.500;   1087.228;275;   1.595;  70.436;;; 200.404; 183.704;   9.338;  55.370;  54.578;   4.940;   1.563;   0.695;  -0.582;   1.313;39969.984;;;;;;;;;;;;;;;;;
2017-05-22T02:19:57.763Z;0;3.5650e+00;1;     0.368;270805.281;  16955.031; 1;  16955.031; 271335.531; 271862.688;   1057.420;275;   1.593;  70.359;;; 200.325; 183.625;   9.348;  55.309;  54.515;   4.919;   1.561;   0.697;  -0.580;   1.310;39840.461;;;;;;;;;;;;;;;;;
2017-05-22T02:20:13.763Z;0;3.2790e+00;1;     0.384;277612.812;  16259.896; 1;  16259.896; 278088.562; 278561.906;    949.104;275;   1.589;  70.206;;; 200.175; 183.473;   9.368;  55.186;  54.388;   4.876;   1.557;   0.700;  -0.577;   1.305;39581.500;;;;;;;;;;;;;;;;;
2017-05-22T02:20:21.763Z;0;3.4590e+00;1;     0.374;277612.812;  16700.820; 1;  16700.820; 278114.719; 278613.906;   1001.089;275;   1.587;  70.130;;; 200.101; 183.397;   9.378;  55.124;  54.323;   4.854;   1.555;   0.702;  -0.575;   1.302;39452.062;;;;;;;;;;;;;;;;;
2017-05-22T02:20:29.763Z;0;3.4670e+00;1;     0.186;277612.812;  16720.078; 1;  16720.078; 278115.875; 278616.188;   1003.391;275;   1.585;  70.054;;; 200.027; 183.322;   9.388;  55.062;  54.259;   4.833;   1.553;   0.704;  -0.573;   1.299;39322.660;;;;;;;;;;;;;;;;;
2017-05-22T02:20:37.763Z;0;3.6150e+00;1;     0.383;277612.812;  17073.742; 1;  17073.742; 278137.344; 278658.938;   1046.127;275;   1.583;  69.978;;; 199.953; 183.246;   9.398;  54.999;  54.194;   4.812;   1.551;   0.706;  -0.572;   1.297;39193.285;;;;;;;;;;;;;;;;;
2017-05-22T02:20:45.763Z;0;3.8760e+00;1;     0.370;277612.812;  17679.885; 1;  17679.885; 278175.219; 278734.219;   1121.421;275;   1.581;  69.901;;; 199.879; 183.171;   9.408;  54.936;  54.129;   4.791;   1.549;   0.707;  -0.570;   1.294;39063.945;;;;;;;;;;;;;;;;;
2017-05-22T02:21:01.763Z;0;3.6150e+00;1;     0.383;284550.875;  17073.742; 1;  17073.742; 285062.656; 285571.688;   1020.804;275;   1.577;  69.750;;; 199.732; 183.020;   9.428;  54.809;  53.997;   4.748;   1.545;   0.711;  -0.567;   1.289;38805.359;;;;;;;;;;;;;;;;;
2017-05-22T02:21:09.763Z;0;3.6150e+00;1;     0.383;284550.875;  17073.742; 1;  17073.742; 285062.656; 285571.688;   1020.804;275;   1.575;  69.674;;; 199.658; 182.945;   9.439;  54.745;  53.931;   4.727;   1.543;   0.712;  -0.565;   1.286;38676.113;;;;;;;;;;;;;;;;;
2017-05-22T02:21:17.763Z;0;3.8340e+00;1;     0.560;284550.875;  17583.484; 1;  17583.484; 285093.625; 285633.312;   1082.433;275;   1.573;  69.598;;; 199.585; 182.870;   9.449;  54.681;  53.864;   4.706;   1.541;   0.714;  -0.563;   1.283;38546.902;;;;;;;;;;;;;;;;;
2017-05-22T02:21:25.762Z;0;3.9680e+00;1;     0.576;284550.875;  17887.953; 1;  17887.953; 285112.562; 285670.969;   1120.096;275;   1.571;  69.522;;; 199.511; 182.795;   9.459;  54.616;  53.797;   4.685;   1.539;   0.716;  -0.561;   1.281;38417.742;;;;;;;;;;;;;;;;;
2017-05-22T02:21:33.762Z;0;3.5650e+00;1;     0.184;284550.875;  16955.031; 1;  16955.031; 285055.562; 285557.594;   1006.708;275;   1.569;  69.447;;; 199.438; 182.720;   9.469;  54.551;  53.729;   4.664;   1.537;   0.717;  -0.560;   1.278;38288.602;;;;;;;;;;;;;;;;;
2017-05-22T02:21:49.762Z;0;3.5650e+00;1;     0.368;284550.875;  16955.031; 1;  16955.031; 285055.562; 285557.594;   1006.708;275;   1.565;  69.296;;; 199.292; 182.570;   9.489;  54.420;  53.593;   4.622;   1.533;   0.721;  -0.556;   1.272;38030.422;;;;;;;;;;;;;;;;;
2017-05-22T02:21:57.762Z;0;3.7050e+00;1;     0.189;284550.875;  17284.197; 1;  17284.197; 285075.344; 285596.906;   1046.032;275;   1.563;  69.220;;; 199.219; 182.495;   9.499;  54.354;  53.525;   4.601;   1.531;   0.722;  -0.555;   1.270;37901.387;;;;;;;;;;;;;;;;;
2017-05-22T02:22:05.762Z;0;3.6660e+00;1;     0.190;291606.312;  17193.285; 1;  17193.285; 292112.750; 292616.562;   1010.227;275;   1.561;  69.145;;; 199.146; 182.421;   9.509;  54.287;  53.456;   4.580;   1.529;   0.724;  -0.553;   1.267;37772.391;;;;;;;;;;;;;;;;;
2017-05-22T02:22:13.762Z;0;3.2790e+00;1;     0.192;291606.312;  16259.896; 1;  16259.896; 292059.312; 292510.188;    903.846;275;   1.559;  69.070;;; 199.073; 182.346;   9.519;  54.220;  53.386;   4.559;   1.527;   0.726;  -0.551;   1.264;37643.426;;;;;;;;;;;;;;;;;
2017-05-22T02:22:21.762Z;0;3.2790e+00;1;     0.192;291606.312;  16259.896; 1;  16259.896; 292059.312; 292510.188;    903.846;275;   1.557;  68.995;;; 199.000; 182.271;   9.529;  54.153;  53.316;   4.539;   1.525;   0.727;  -0.549;   1.262;37514.504;;;;;;;;;;;;;;;;;
2017-05-22T02:22:37.762Z;0;3.1200e+00;1;     0.188;291606.312;  15862.464; 1;  15862.464; 292037.438; 292466.656;    860.330;275;   1.552;  68.845;;; 198.855; 182.122;   9.549;  54.017;  53.176;   4.497;   1.521;   0.731;  -0.546;   1.256;37256.770;;;;;;;;;;;;;;;;;
2017-05-22T02:22:45.762Z;0;2.9130e+00;1;     0.185;291606.312;  15327.072; 1;  15327.072; 292008.844; 292409.719;    803.390;275;   1.550;  68.771;;; 198.783; 182.047;   9.559;  53.949;  53.105;   4.477;   1.519;   0.732;  -0.544;   1.253;37127.961;;;;;;;;;;;;;;;;;
2017-05-22T02:22:53.762Z;0;3.0150e+00;1;     0.191;291606.312;  15593.260; 1;  15593.260; 292022.938; 292437.781;    831.458;275;   1.548;  68.696;;; 198.710; 181.973;   9.569;  53.880;  53.034;   4.456;   1.517;   0.734;  -0.542;   1.251;36999.188;;;;;;;;;;;;;;;;;
2017-05-22T02:23:01.762Z;0;2.8520e+00;1;     0.187;298774.031;  15164.091; 1;  15164.091; 299158.594; 299541.688;    767.672;275;   1.546;  68.621;;; 198.638; 181.898;   9.579;  53.811;  52.962;   4.436;   1.515;   0.736;  -0.541;   1.248;36870.461;;;;;;;;;;;;;;;;;
2017-05-22T02:23:09.762Z;0;2.8120e+00;1;     0.189;298774.031;  15058.657; 1;  15058.657; 299153.281; 299531.094;    757.060;275;   1.544;  68.547;;; 198.566; 181.824;   9.589;  53.742;  52.890;   4.415;   1.513;   0.737;  -0.539;   1.245;36741.770;;;;;;;;;;;;;;;;;
2017-05-22T02:23:25.762Z;0;2.7350e+00;1;     0.191;298774.031;  14849.983; 1;  14849.983; 299142.844; 299510.312;    736.275;275;   1.540;  68.398;;; 198.421; 181.675;   9.609;  53.602;  52.745;   4.374;   1.509;   0.741;  -0.536;   1.240;36484.516;;;;;;;;;;;;;;;;;
2017-05-22T02:23:33.762Z;0;2.7350e+00;1;     0.191;298774.031;  14849.983; 1;  14849.983; 299142.844; 299510.312;    736.275;275;   1.538;  68.324;;; 198.350; 181.601;   9.619;  53.531;  52.672;   4.354;   1.507;   0.742;  -0.534;   1.237;36355.953;;;;;;;;;;;;;;;;;
2017-05-22T02:23:41.762Z;0;2.5150e+00;1;     0.190;298774.031;  14241.152; 1;  14241.152; 299113.250; 299451.312;    677.273;275;   1.536;  68.250;;; 198.278; 181.527;   9.629;  53.460;  52.598;   4.334;   1.505;   0.744;  -0.532;   1.234;36227.430;;;;;;;;;;;;;;;;;
2017-05-22T02:23:49.762Z;0;2.3710e+00;1;     0.187;298774.031;  13826.902; 1;  13826.902; 299093.812; 299412.562;    638.528;275;   1.534;  68.176;;; 198.206; 181.453;   9.638;  53.389;  52.524;   4.314;   1.503;   0.746;  -0.530;   1.231;36098.953;;;;;;;;;;;;;;;;;
2017-05-22T02:23:57.761Z;0;2.5500e+00;1;     0.378;298774.031;  14340.863; 1;  14340.863; 299118.000; 299460.781;    686.769;275;   1.532;  68.103;;; 198.134; 181.379;   9.648;  53.317;  52.450;   4.293;   1.501;   0.747;  -0.529;   1.229;35970.535;;;;;;;;;;;;;;;;;
2017-05-22T02:24:13.761Z;0;1.8640e+00;1;     0.192;306047.031;  12261.253; 1;  12261.253; 306292.531; 306537.469;    490.440;275;   1.528;  67.955;;; 197.991; 181.231;   9.668;  53.173;  52.300;   4.253;   1.497;   0.751;  -0.525;   1.223;35713.801;;;;;;;;;;;;;;;;;
2017-05-22T02:24:21.761Z;0;1.9030e+00;1;     0.380;306047.031;  12386.322; 1;  12386.322; 306297.562; 306547.500;    500.480;275;   1.526;  67.882;;; 197.920; 181.157;   9.678;  53.100;  52.225;   4.233;   1.495;   0.752;  -0.523;   1.220;35585.500;;;;;;;;;;;;;;;;;
2017-05-22T02:24:29.761Z;0;1.8640e+00;1;     0.192;306047.031;  12261.253; 1;  12261.253; 306292.531; 306537.469;    490.440;275;   1.524;  67.808;;; 197.848; 181.083;   9.688;  53.026;  52.149;   4.213;   1.493;   0.754;  -0.522;   1.218;35457.246;;;;;;;;;;;;;;;;;
2017-05-22T02:24:37.761Z;0;1.7020e+00;1;    -1.262;306047.031;  11713.893; 1;  11713.893; 306271.125; 306494.719;    447.692;275;   1.522;  67.735;;; 197.777; 181.009;   9.698;  52.953;  52.073;   4.193;   1.491;   0.756;  -0.520;   1.215;35329.043;;;;;;;;;;;;;;;;;
2017-05-22T02:24:45.761Z;0;1.6780e+00;1;     0.184;306047.031;  11632.448; 1;  11632.448; 306268.000; 306488.531;    441.497;275;   1.520;  67.662;;; 197.706; 180.936;   9.708;  52.879;  51.996;   4.174;   1.489;   0.757;  -0.518;   1.212;35200.883;;;;;;;;;;;;;;;;;
2017-05-22T02:25:01.761Z;0;1.5700e+00;1;     0.190;313413.781;  11252.688; 1;  11252.688; 313615.719; 313817.281;    403.493;275;   1.516;  67.516;;; 197.564; 180.788;   9.728;  52.730;  51.842;   4.134;   1.485;   0.760;  -0.515;   1.206;34944.707;;;;;;;;;;;;;;;;;
2017-05-22T02:25:09.761Z;0;1.5170e+00;1;     0.185;313413.781;  11061.157; 1;  11061.157; 313608.906; 313803.688;    389.891;275;   1.514;  67.443;;; 197.493; 180.715;   9.737;  52.655;  51.764;   4.114;   1.483;   0.762;  -0.513;   1.204;34816.691;;;;;;;;;;;;;;;;;
2017-05-22T02:25:17.761Z;0;1.4660e+00;1;     0.188;313413.781;  10872.886; 1;  10872.886; 313602.344; 313790.531;    376.747;275;   1.512;  67.371;;; 197.422; 180.641;   9.747;  52.579;  51.685;   4.095;   1.481;   0.764;  -0.511;   1.201;34688.730;;;;;;;;;;;;;;;;;
2017-05-22T02:25:33.761Z;0;1.5170e+00;1;     0.185;313413.781;  11061.157; 1;  11061.157; 313608.906; 313803.688;    389.891;275;   1.508;  67.226;;; 197.281; 180.494;   9.767;  52.427;  51.528;   4.056;   1.477;   0.767;  -0.507;   1.195;34432.953;;;;;;;;;;;;;;;;;
2017-05-22T02:25:49.761Z;0;1.7020e+00;1;     0.576;313413.781;  11713.893; 1;  11713.893; 313632.625; 313851.000;    437.199;275;   1.504;  67.081;;; 197.140; 180.348;   9.787;  52.273;  51.368;   4.017;   1.473;   0.770;  -0.504;   1.190;34177.379;;;;;;;;;;;;;;;;;
2017-05-22T02:25:57.761Z;0;1.7020e+00;1;     0.192;313413.781;  11713.893; 1;  11713.893; 313632.625; 313851.000;    437.199;275;   1.502;  67.009;;; 197.070; 180.275;   9.796;  52.196;  51.288;   3.998;   1.471;   0.772;  -0.502;   1.187;34049.672;;;;;;;;;;;;;;;;;
2017-05-22T02:26:05.761Z;0;1.4190e+00;1;     0.191;320853.125;  10698.169; 1;  10698.169; 321031.438; 321209.438;    356.312;275;   1.500;  66.937;;; 196.999; 180.201;   9.806;  52.118;  51.208;   3.978;   1.469;   0.773;  -0.500;   1.184;33922.020;;;;;;;;;;;;;;;;;
2017-05-22T02:26:13.761Z;0;1.4590e+00;1;     0.377;320853.125;  10848.501; 1;  10848.501; 321036.469; 321219.500;    366.385;275;   1.498;  66.865;;; 196.929; 180.128;   9.816;  52.040;  51.127;   3.959;   1.467;   0.775;  -0.499;   1.181;33794.418;;;;;;;;;;;;;;;;;
2017-05-22T02:26:21.761Z;0;1.1530e+00;1;     0.184;320853.125;   9641.727; 1;   9641.727; 320997.969; 321142.594;    289.475;275;   1.496;  66.794;;; 196.859; 180.055;   9.826;  51.961;  51.045;   3.940;   1.465;   0.777;  -0.497;   1.178;33666.875;;;;;;;;;;;;;;;;;
2017-05-22T02:26:37.760Z;0;1.2170e+00;1;     0.188;320853.125;   9907.816; 1;   9907.816; 321006.062; 321158.781;    305.658;275;   1.492;  66.651;;; 196.719; 179.909;   9.845;  51.803;  50.881;   3.902;   1.461;   0.780;  -0.493;   1.173;33411.969;;;;;;;;;;;;;;;;;
2017-05-22T02:26:45.760Z;0;1.1840e+00;1;     0.214;320853.125;   9770.520; 1;   9770.520; 321001.844; 321150.375;    297.253;275;   1.490;  66.579;;; 196.650; 179.836;   9.855;  51.723;  50.798;   3.883;   1.459;   0.781;  -0.491;   1.170;33284.590;;;;;;;;;;;;;;;;;
2017-05-22T02:26:53.760Z;0;1.2780e+00;1;     0.192;320853.125;  10151.307; 1;  10151.307; 321013.656; 321173.969;    320.851;275;   1.488;  66.508;;; 196.580; 179.763;   9.865;  51.643;  50.715;   3.864;   1.457;   0.783;  -0.490;   1.167;33157.270;;;;;;;;;;;;;;;;;
2017-05-22T02:27:01.760Z;0;1.1840e+00;1;     0.190;328349.594;   9770.520; 1;   9770.520; 328494.938; 328640.094;    290.479;275;   1.486;  66.437;;; 196.510; 179.691;   9.875;  51.562;  50.632;   3.845;   1.455;   0.785;  -0.488;   1.164;33030.008;;;;;;;;;;;;;;;;;
2017-05-22T02:27:09.760Z;0;1.2690e+00;1;     0.553;328349.594;  10117.387; 1;  10117.387; 328505.438; 328661.062;    311.450;275;   1.484;  66.366;;; 196.441; 179.618;   9.884;  51.481;  50.548;   3.827;   1.453;   0.786;  -0.486;   1.161;32902.805;;;;;;;;;;;;;;;;;
2017-05-22T02:27:25.760Z;0;1.0590e+00;1;     0.192;328349.594;   9240.098; 1;   9240.098; 328479.594; 328609.438;    259.820;275;   1.480;  66.225;;; 196.302; 179.472;   9.904;  51.318;  50.379;   3.789;   1.450;   0.789;  -0.483;   1.155;32648.576;;;;;;;;;;;;;;;;;
2017-05-22T02:27:33.760Z;0;1.1040e+00;1;     0.377;328349.594;   9435.545; 1;   9435.545; 328485.156; 328620.531;    270.919;275;   1.478;  66.154;;; 196.233; 179.400;   9.913;  51.235;  50.293;   3.771;   1.448;   0.791;  -0.481;   1.153;32521.553;;;;;;;;;;;;;;;;;
2017-05-22T02:27:41.760Z;0;1.1510e+00;1;     0.184;328349.594;   9635.126; 1;   9635.126; 328490.938; 328632.094;    282.491;275;   1.476;  66.084;;; 196.163; 179.327;   9.923;  51.153;  50.208;   3.752;   1.446;   0.793;  -0.479;   1.150;32394.590;;;;;;;;;;;;;;;;;
2017-05-22T02:27:49.760Z;0;1.2870e+00;1;     0.269;328349.594;  10188.224; 1;  10188.224; 328507.625; 328665.438;    315.822;275;   1.474;  66.013;;; 196.094; 179.255;   9.933;  51.070;  50.122;   3.734;   1.444;   0.794;  -0.477;   1.147;32267.689;;;;;;;;;;;;;;;;;
2017-05-22T02:27:57.760Z;0;1.4000e+00;1;     0.192;328349.594;  10623.786; 1;  10623.786; 328521.438; 328692.969;    343.375;275;   1.472;  65.943;;; 196.025; 179.182;   9.942;  50.986;  50.036;   3.715;   1.442;   0.796;  -0.475;   1.144;32140.854;;;;;;;;;;;;;;;;;
2017-05-22T02:28:13.760Z;0;1.5700e+00;1;     0.190;335907.094;  11252.688; 1;  11252.688; 336095.500; 336283.625;    376.536;275;   1.468;  65.803;;; 195.888; 179.038;   9.962;  50.818;  49.861;   3.679;   1.438;   0.799;  -0.472;   1.138;31887.369;;;;;;;;;;;;;;;;;
2017-05-22T02:28:21.760Z;0;1.6090e+00;1;     0.188;335907.094;  11391.495; 1;  11391.495; 336100.188; 336292.969;    385.872;275;   1.466;  65.734;;; 195.819; 178.965;   9.971;  50.734;  49.774;   3.661;   1.436;   0.800;  -0.470;   1.135;31760.725;;;;;;;;;;;;;;;;;
2017-05-22T02:28:29.760Z;0;1.5700e+00;1;     0.190;335907.094;  11252.688; 1;  11252.688; 336095.500; 336283.625;    376.536;275;   1.464;  65.664;;; 195.750; 178.893;   9.981;  50.649;  49.686;   3.642;   1.434;   0.802;  -0.468;   1.132;31634.145;;;;;;;;;;;;;;;;;
2017-05-22T02:28:37.760Z;0;1.7250e+00;1;     0.190;335907.094;  11795.909; 1;  11795.909; 336114.125; 336320.812;    413.722;275;   1.462;  65.595;;; 195.682; 178.821;   9.991;  50.563;  49.597;   3.624;   1.432;   0.803;  -0.466;   1.129;31507.633;;;;;;;;;;;;;;;;;
2017-05-22T02:28:45.760Z;0;1.7500e+00;1;     0.189;335907.094;  11878.498; 1;  11878.498; 336117.031; 336326.625;    419.529;275;   1.461;  65.525;;; 195.613; 178.749;  10.000;  50.477;  49.508;   3.606;   1.430;   0.805;  -0.465;   1.127;31381.188;;;;;;;;;;;;;;;;;
2017-05-22T02:29:01.760Z;0;1.7500e+00;1;     0.189;343501.781;  11878.498; 1;  11878.498; 343707.094; 343912.062;    410.276;275;   1.457;  65.387;;; 195.477; 178.605;  10.020;  50.304;  49.329;   3.570;   1.426;   0.808;  -0.461;   1.121;31128.500;;;;;;;;;;;;;;;;;
2017-05-22T02:29:09.759Z;0;1.7250e+00;1;     0.190;343501.781;  11795.909; 1;  11795.909; 343704.250; 343906.375;    404.597;275;   1.455;  65.318;;; 195.408; 178.533;  10.029;  50.217;  49.239;   3.553;   1.424;   0.810;  -0.459;   1.118;31002.275;;;;;;;;;;;;;;;;;
2017-05-22T02:29:17.759Z;0;1.8010e+00;1;     0.373;343501.781;  12052.556; 1;  12052.556; 343713.156; 343924.156;    422.372;275;   1.453;  65.249;;; 195.340; 178.461;  10.039;  50.130;  49.148;   3.535;   1.423;   0.811;  -0.457;   1.115;30876.105;;;;;;;;;;;;;;;;;
2017-05-22T02:29:25.759Z;0;1.8010e+00;1;     0.373;343501.781;  12052.556; 1;  12052.556; 343713.156; 343924.156;    422.372;275;   1.451;  65.181;;; 195.272; 178.389;  10.048;  50.042;  49.057;   3.517;   1.421;   0.813;  -0.456;   1.112;30750.008;;;;;;;;;;;;;;;;;
2017-05-22T02:29:33.759Z;0;1.8010e+00;1;     0.373;343501.781;  12052.556; 1;  12052.556; 343713.156; 343924.156;    422.372;275;   1.449;  65.112;;; 195.204; 178.317;  10.058;  49.953;  48.966;   3.500;   1.419;   0.814;  -0.454;   1.109;30623.980;;;;;;;;;;;;;;;;;
2017-05-22T02:29:49.759Z;0;1.7250e+00;1;     0.381;343501.781;  11795.909; 1;  11795.909; 343704.250; 343906.375;    404.597;275;   1.445;  64.976;;; 195.069; 178.174;  10.077;  49.775;  48.781;   3.465;   1.415;   0.817;  -0.450;   1.103;30372.145;;;;;;;;;;;;;;;;;
2017-05-22T02:29:57.759Z;0;1.7250e+00;1;    -1.069;343501.781;  11795.909; 1;  11795.909; 343704.250; 343906.375;    404.597;275;   1.443;  64.908;;; 195.001; 178.102;  10.087;  49.686;  48.689;   3.447;   1.413;   0.819;  -0.448;   1.100;30246.338;;;;;;;;;;;;;;;;;
2017-05-22T02:30:05.759Z;0;1.7740e+00;1;     0.376;351108.844;  11961.666; 1;  11961.666; 351312.531; 351515.875;    407.041;275;   1.441;  64.840;;; 194.934; 178.033;  10.096;  49.596;  48.595;   3.430;   1.411;   0.820;  -0.446;   1.097;30120.605;;;;;;;;;;;;;;;;;
2017-05-22T02:30:13.759Z;0;1.8500e+00;1;     0.368;351108.844;  12214.680; 1;  12214.680; 351321.250; 351533.250;    424.422;275;   1.439;  64.772;;; 194.868; 177.966;  10.106;  49.505;  48.502;   3.413;   1.409;   0.822;  -0.445;   1.094;29994.949;;;;;;;;;;;;;;;;;
2017-05-22T02:30:21.759Z;0;1.8760e+00;1;     0.383;351108.844;  12300.202; 1;  12300.202; 351324.219; 351539.219;    430.379;275;   1.437;  64.704;;; 194.802; 177.898;  10.115;  49.414;  48.408;   3.395;   1.407;   0.824;  -0.443;   1.091;29869.369;;;;;;;;;;;;;;;;;
2017-05-22T02:30:37.759Z;0;2.0400e+00;1;     0.192;351108.844;  12826.054; 1;  12826.054; 351343.031; 351576.750;    467.914;275;   1.433;  64.570;;; 194.670; 177.764;  10.134;  49.231;  48.218;   3.361;   1.404;   0.827;  -0.439;   1.085;29618.443;;;;;;;;;;;;;;;;;
2017-05-22T02:30:53.759Z;0;2.1870e+00;1;     0.372;351108.844;  13281.397; 1;  13281.397; 351359.938; 351610.531;    501.679;275;   1.429;  64.435;;; 194.538; 177.630;  10.153;  49.047;  48.027;   3.327;   1.400;   0.830;  -0.436;   1.079;29367.832;;;;;;;;;;;;;;;;;
2017-05-22T02:31:57.758Z;0;1.5650e+00;1;     0.574;358712.719;  11233.638; 1;  11233.638; 358888.594; 359064.188;    351.454;275;   1.414;  63.904;;; 194.017; 177.101;  10.229;  48.290;  47.244;   3.194;   1.385;   0.842;  -0.421;   1.056;28368.705;;;;;;;;;;;;;;;;;
2017-05-22T02:32:29.758Z;0;1.9290e+00;1;     0.568;366295.625;  12473.046; 1;  12473.046; 366507.906; 366719.844;    424.239;275;   1.406;  63.643;;; 193.759; 176.840;  10.266;  47.902;  46.842;   3.129;   1.377;   0.847;  -0.413;   1.044;27871.213;;;;;;;;;;;;;;;;;
2017-05-22T02:33:09.758Z;0;3.0150e+00;1;     0.574;373818.781;  15592.008; 1;  15592.008; 374143.812; 374468.000;    649.216;275;   1.397;  63.319;;; 193.440; 176.518;  10.313;  47.407;  46.329;   3.050;   1.368;   0.855;  -0.404;   1.028;27251.414;;;;;;;;;;;;;;;;;
2017-05-22T02:33:25.758Z;0;2.9620e+00;1;     0.553;373818.781;  15453.979; 1;  15453.979; 374138.094; 374456.562;    637.792;275;   1.393;  63.190;;; 193.313; 176.390;  10.331;  47.205;  46.121;   3.018;   1.364;   0.858;  -0.400;   1.022;27004.162;;;;;;;;;;;;;;;;;
2017-05-22T02:33:33.758Z;0;2.6280e+00;1;     0.186;373818.781;  14557.676; 1;  14557.676; 374102.125; 374384.844;    566.064;275;   1.391;  63.126;;; 193.249; 176.326;  10.341;  47.104;  46.016;   3.003;   1.363;   0.859;  -0.399;   1.019;26880.684;;;;;;;;;;;;;;;;;
2017-05-22T02:33:49.758Z;0;2.0390e+00;1;     0.192;373818.781;  12821.663; 1;  12821.663; 374038.594; 374258.031;    439.256;275;   1.388;  62.998;;; 193.123; 176.199;  10.359;  46.900;  45.805;   2.972;   1.359;   0.862;  -0.395;   1.013;26634.025;;;;;;;;;;;;;;;;;